CAPE
0 0 0 0 0 0 0 0 0 0 0 0 0 0 0 0 0 0 0 0 0 0 0 0 0 0 0 0 0 0 0 0 0 0 0 0 0 0 0 0 1 0 0 0 0 0 0 0 0 0 0 0 0 0
0 0 0 0 0 0 0 0 0 0 0 0 0 0 0 0 0 0 0 0 1 3 0 0 0 0 0 0 0 0 0 0 0 0 0 0 0 0 0 0 0 0 1 0 0 0 0 2 2 3 0 0 0 0
0 0 0 0 0 0 0 0 0 0 0 0 0 0 0 0 0 0 0 0 0 1 0 0 0 0 0 0 0 5 0 0 0 0 0 0 0 0 0 0 0 0 4 0 0 0 0 0 0 0 0 0 0 0
0 0 0 0 0 0 0 0 0 0 0 0 0 0 0 0 1 2 0 0 0 0 0 0 0 0 0 0 0 1 3 0 0 0 0 0 0 0 0 0 0 0 0 2 0 0 0 1 6 0 0 0 0 0
0 0 0 0 0 0 0 0 0 0 0 0 0 0 0 0 0 0 0 0 0 0 0 0 0 0 0 0 0 0 0 0 0 0 0 0 0 0 0 0 0 0 0 0 0 0 0 0 0 0 0 0 0 0
0 0 0 0 0 0 0 0 0 0 0 0 0 0 0 0 0 0 0 0 6 10 2 0 0 0 0 0 0 0 0 0 0 0 0 0 0 0 0 0 0 0 0 0 0 0 0 0 0 0 0 0 0 0
0 0 0 0 0 0 0 0 0 0 0 0 0 0 0 0 0 0 0 0 0 0 0 0 0 0 0 0 0 0 0 0 0 0 0 0 0 1 0 0 0 0 0 0 0 0 0 0 0 0 0 0 0 0
0 0 0 0 0 0 0 0 0 0 0 0 0 0 0 0 0 0 0 0 0 0 0 0 0 0 0 0 0 0 0 0 0 0 0 0 0 0 0 0 0 0 0 0 0 0 0 0 0 0 0 0 0 0
15 9 5 1 0 0 0 0 0 0 0 0 0 0 0 0 0 0 0 0 0 0 0 1 0 0 0 0 0 0 0 0 0 0 0 0 0 0 0 0 0 0 0 0 0 0 0 0 0 0 0 0 0 0
16 12 9 5 1 0 0 3 0 0 0 0 0 0 0 0 0 0 0 0 1 6 0 0 0 0 0 0 0 0 0 0 0 0 0 0 0 0 0 0 0 0 0 0 0 0 0 0 0 0 0 0 0 0
16 10 11 11 4 15 5 2 0 0 0 0 0 0 0 0 0 0 0 0 0 0 0 0 0 0 0 0 0 0 0 0 0 0 1 0 0 0 0 0 0 0 0 0 0 0 0 0 0 0 0 0 0 0
19 14 12 12 6 4 5 1 0 0 0 0 0 0 0 0 0 0 0 0 0 0 0 0 0 0 0 0 0 0 0 0 0 0 0 0 0 0 0 0 0 0 0 0 0 0 0 0 0 0 0 0 0 0
26 16 9 0 0 3 4 0 1 0 0 0 0 0 0 0 0 0 0 0 0 0 0 0 0 0 0 0 0 0 0 0 0 0 0 0 0 0 0 0 0 0 0 0 0 0 0 0 0 0 0 0 0 0
15 17 0 0 1 2 2 1 0 0 0 0 0 0 0 0 0 0 0 0 0 0 0 0 0 0 0 0 0 0 0 0 0 0 0 0 0 0 0 0 0 0 0 0 0 0 0 0 0 4 1 1 0 0
8 15 5 3 5 5 2 0 4 0 0 1 0 0 0 0 0 0 0 0 0 0 0 0 0 0 0 0 0 0 0 0 0 0 0 0 0 0 0 0 0 0 0 0 0 0 0 0 0 0 1 0 6 7
8 10 5 3 9 10 4 9 7 0 0 0 0 0 0 0 0 0 0 0 0 0 0 0 0 0 0 0 0 0 0 0 0 0 0 0 0 0 0 0 0 0 0 0 0 0 0 0 0 0 0 0 0 0
14 0 0 7 11 10 10 5 0 0 0 0 0 0 0 0 0 0 0 0 0 0 0 0 0 0 0 0 0 0 0 0 0 0 0 0 0 0 0 0 0 0 0 0 0 0 0 0 0 0 0 0 0 0
0 0 3 6 10 10 13 14 4 0 0 0 0 0 0 0 0 0 0 0 0 0 0 0 0 0 0 0 0 0 0 0 0 0 0 0 0 0 0 0 0 0 0 0 0 0 0 0 0 0 0 0 0 0
0 0 0 9 2 1 0 1 0 0 0 0 0 0 0 0 0 0 0 0 0 0 0 1 1 0 0 0 0 0 0 0 0 2 4 0 0 0 0 0 0 0 0 0 0 0 0 0 0 0 0 0 1 0
0 2 7 4 7 3 0 0 0 0 0 0 0 0 0 0 0 0 0 0 0 0 0 0 0 0 0 0 0 0 0 0 0 0 0 0 0 0 0 0 0 0 0 0 0 0 0 0 0 0 0 0 0 0
1 1 24 17 0 0 0 0 0 0 0 0 0 0 0 0 0 0 0 0 0 0 0 0 0 0 0 0 0 0 0 0 0 0 0 0 0 0 0 0 0 0 0 0 0 0 0 0 0 0 0 0 0 0
1 0 0 1 0 0 0 0 0 0 0 0 0 0 0 0 0 0 0 0 0 0 0 0 0 0 0 0 0 0 0 0 0 0 0 0 0 0 0 0 0 0 0 0 0 0 0 0 0 0 0 0 0 0
0 0 0 0 0 0 0 0 0 0 0 0 0 0 0 0 0 0 0 0 0 0 0 0 0 0 0 0 0 0 0 0 0 0 0 0 0 0 0 0 0 0 0 0 0 0 0 0 0 0 0 0 0 0
0 0 0 0 0 0 0 0 3 4 0 0 0 0 0 0 0 0 0 0 0 0 0 0 0 0 0 0 0 0 0 0 0 0 0 0 0 0 0 0 0 0 0 0 0 0 0 0 0 0 0 0 0 0
0 0 0 0 0 0 0 0 0 0 0 0 0 0 0 0 0 0 0 0 0 0 0 0 0 0 0 0 0 0 0 0 0 2 0 0 0 0 0 0 0 0 0 0 0 0 0 0 0 0 0 0 0 0
0 0 0 0 0 0 0 0 0 0 0 0 0 0 0 0 0 0 0 0 0 0 0 0 0 0 0 0 0 0 0 0 0 0 0 0 0 0 0 0 0 0 0 0 0 0 0 0 0 0 0 0 0 0
0 0 0 0 0 0 0 0 0 0 0 0 0 0 1 0 0 0 0 0 0 0 0 0 0 0 0 0 0 0 0 0 0 0 0 0 0 0 0 0 0 0 0 0 0 0 0 0 0 0 0 0 0 0
0 0 0 0 0 0 0 0 0 1 0 0 0 0 0 0 0 0 0 0 0 0 0 0 0 0 0 0 0 0 0 0 0 0 0 0 0 0 0 0 0 0 0 0 0 0 0 0 0 0 0 0 0 0
0 0 0 0 0 0 0 0 0 0 0 0 0 0 0 0 0 0 0 0 0 0 0 0 0 0 0 0 0 0 0 0 0 0 0 0 0 0 0 0 0 0 0 0 0 0 0 0 0 0 0 0 0 0
0 0 0 0 0 0 0 0 0 0 0 0 0 0 0 0 0 0 0 0 0 0 0 0 0 0 0 0 0 0 0 0 0 0 0 0 0 0 0 0 0 0 0 0 0 0 0 0 0 0 0 0 0 0
0 0 0 0 0 0 0 0 0 0 0 0 0 0 0 0 0 0 0 0 0 0 0 0 0 0 0 0 0 0 0 0 0 0 0 0 0 0 0 0 0 0 0 0 0 0 0 0 0 0 0 0 0 0
0 0 0 0 0 0 0 0 0 0 0 0 0 0 0 0 0 0 0 0 0 0 0 0 0 0 0 0 0 0 0 0 0 0 0 0 0 0 0 0 0 0 0 0 0 0 0 0 0 0 0 0 0 0
0 0 0 0 0 0 0 0 0 0 0 0 0 0 0 0 2 0 0 0 0 0 0 0 0 0 0 0 0 0 0 0 0 0 0 0 0 0 0 0 0 0 0 0 0 0 0 0 0 0 0 0 0 0
CIN
0 0 0 0 0 0 0 0 0 0 0 0 0 0 0 0 0 0 0 0 0 0 0 0 0 0 0 0 0 0 0 0 0 0 0 0 0 0 0 0 0 0 0 0 0 0 0 0 0 -18 0 0 0 0
0 0 0 0 0 0 0 0 0 0 0 0 0 0 0 0 0 0 0 0 -13 -1 0 0 0 0 0 0 0 0 0 -5 0 0 0 0 0 0 0 0 0 -1 -3 -8 0 0 0 -1 -4 -13 -21 0 0 0
0 0 0 0 0 0 0 0 0 0 0 0 0 0 0 0 0 0 0 0 0 -1 0 0 0 0 0 0 0 -1 -1 -5 0 0 0 0 0 0 0 0 0 0 -31 0 -5 0 0 0 0 0 0 0 0 0
0 0 0 0 0 0 0 0 0 0 0 0 0 0 0 0 0 0 0 0 -4 0 0 0 0 0 0 0 0 -20 -8 0 -5 0 0 0 0 0 0 0 0 0 0 -19 0 0 -5 -27 -83 0 0 0 0 0
0 0 0 0 0 0 0 0 0 0 0 0 0 0 0 0 0 0 0 0 0 -1 0 0 0 0 0 0 0 -2 0 0 0 0 0 0 0 0 0 0 0 0 0 0 0 0 0 0 0 0 0 0 0 0
0 0 0 0 0 0 0 0 0 0 0 0 0 0 0 0 0 0 0 0 -31 -13 -2 0 0 0 0 0 0 0 0 0 0 0 0 0 0 0 0 0 0 0 0 0 0 0 0 0 0 0 0 0 0 0
0 0 0 0 0 0 0 0 0 0 0 0 0 0 0 0 0 0 0 0 0 0 0 0 0 0 0 0 0 0 0 0 0 0 0 0 0 -9 0 0 0 0 0 0 0 0 0 0 0 0 0 0 0 0
-6 0 0 0 0 0 0 0 0 0 0 0 0 0 0 0 0 0 0 0 0 0 0 -3 0 0 0 0 0 0 0 0 0 0 0 0 0 0 0 0 0 0 0 0 0 0 0 0 0 0 0 0 0 0
-9 -18 -21 -14 0 0 0 0 0 0 0 0 0 0 0 0 0 -7 0 0 0 0 0 -3 0 0 0 0 0 0 0 0 0 0 0 0 0 0 0 0 0 0 0 0 0 0 0 0 0 0 0 0 0 0
-2 -10 -16 -17 -15 0 0 -11 0 0 0 0 0 0 0 0 0 0 0 0 -10 -7 0 0 0 0 0 0 0 0 0 0 0 0 0 0 0 0 0 0 0 0 0 0 0 0 0 0 0 0 0 0 0 0
-1 -4 -7 -12 -14 -9 -14 -7 0 0 0 0 0 0 0 0 0 0 0 -1 0 0 0 0 0 0 0 0 0 0 0 0 0 0 -1 0 0 0 0 0 0 0 0 0 0 0 0 0 0 0 0 0 0 0
-1 -2 -4 -8 -11 -9 -5 -1 0 0 0 0 0 0 0 0 0 0 -1 0 0 0 0 0 0 0 0 0 0 0 0 0 0 0 0 0 0 0 0 0 0 0 0 0 0 0 0 0 0 0 0 0 0 0
0 -4 -13 -11 -2 -1 -1 -1 0 0 0 0 0 0 0 0 0 0 0 0 0 0 0 0 0 0 0 0 0 0 0 0 0 0 0 0 0 0 0 0 0 0 0 0 0 0 0 0 0 0 0 0 0 0
0 -2 -10 -1 0 0 -1 0 0 0 0 0 0 0 0 0 0 0 0 0 0 0 0 0 0 0 0 0 0 0 0 0 0 0 0 0 0 0 0 0 0 0 0 0 0 0 0 0 0 -11 -10 -9 0 0
-3 0 -4 -3 -1 0 0 -1 0 0 0 0 -1 0 0 0 0 0 0 0 0 0 0 0 0 0 0 0 0 0 0 0 0 0 0 0 0 0 0 0 0 0 0 0 0 0 0 0 0 0 -9 0 -19 -15
-2 -2 -2 -3 -1 0 0 0 -1 0 0 0 0 0 0 0 0 0 0 0 0 0 0 0 0 0 0 0 0 0 0 0 0 0 0 0 0 0 0 0 0 0 0 0 0 0 0 0 0 0 0 0 0 0
0 0 -6 -4 -1 -1 -1 -1 0 0 0 0 0 0 0 0 0 0 0 0 0 0 0 0 0 0 0 0 0 0 0 0 0 0 0 0 0 0 0 0 0 0 0 0 0 0 0 0 0 0 0 0 0 0
0 0 -4 -4 -1 -2 -2 -2 -2 0 0 0 0 0 0 0 0 0 0 0 0 0 0 0 0 0 0 0 0 0 0 0 0 0 0 0 0 0 0 0 0 0 0 0 0 0 0 0 0 0 0 0 0 0
0 0 -2 -2 -1 -2 0 -5 0 0 0 0 0 0 0 0 0 0 0 0 0 0 -4 -4 -3 0 0 0 0 0 0 0 -17 -37 -42 0 0 0 0 0 0 0 0 0 0 0 0 0 0 0 0 0 -1 -7
0 -8 -3 -3 -5 -4 0 0 0 0 0 0 0 0 0 0 0 0 0 0 0 0 -10 -3 0 0 0 0 0 0 0 0 0 -4 0 0 0 0 0 0 0 0 0 0 0 0 0 0 0 0 0 0 0 0
-1 -1 0 -2 0 0 0 0 0 0 0 0 0 0 0 0 0 0 0 0 0 0 0 0 0 0 0 0 0 0 0 -17 0 0 0 0 0 0 0 0 0 0 0 0 0 0 0 0 0 0 0 0 0 0
0 -1 0 0 0 0 0 0 0 0 0 0 0 0 0 0 0 0 0 0 0 0 0 0 0 0 0 0 0 0 0 0 0 0 0 0 0 0 0 0 0 0 0 0 0 0 0 0 0 0 0 0 0 0
0 0 0 0 0 0 0 0 0 0 0 0 0 0 0 0 0 0 0 0 0 0 0 0 0 0 0 0 0 0 0 0 0 0 0 0 0 0 0 0 0 0 0 0 0 0 0 0 0 0 0 0 0 0
0 0 0 0 0 0 0 -2 -1 -2 0 0 0 0 0 0 0 0 0 0 0 0 0 0 0 0 0 0 0 0 0 0 0 0 0 0 0 0 0 0 0 0 0 0 0 0 0 0 0 0 0 0 0 0
0 0 0 0 0 0 0 0 0 0 0 0 0 0 0 0 0 0 0 0 0 0 0 0 0 0 0 0 0 0 0 0 0 -26 0 0 0 0 0 0 0 0 0 0 0 0 0 0 0 0 0 0 0 0
0 0 0 0 0 0 0 0 0 0 0 0 0 0 0 0 -3 0 0 0 0 0 0 0 0 0 0 0 0 0 0 0 0 0 0 0 0 0 0 0 0 0 0 0 0 0 0 0 0 0 0 0 0 0
0 0 0 0 0 0 0 0 0 0 0 0 0 0 -5 -1 0 0 0 0 0 0 0 0 0 0 0 0 0 0 0 0 0 0 0 0 0 0 0 0 0 0 0 0 0 0 0 0 0 0 0 0 0 0
0 0 0 0 0 0 0 0 0 -4 0 0 0 0 0 0 0 0 0 0 0 0 0 0 0 0 0 0 0 0 0 0 0 0 0 0 0 0 0 0 0 0 0 0 0 0 0 0 0 0 0 0 0 0
0 0 0 0 0 0 0 0 0 0 0 0 0 0 0 0 0 0 0 0 0 0 0 0 0 0 0 0 0 0 0 0 0 0 0 0 0 0 0 0 0 0 0 0 0 0 0 0 0 0 0 0 0 0
0 0 0 0 0 0 0 0 0 0 0 0 0 0 0 0 0 0 0 0 0 0 0 0 0 0 0 0 0 0 0 0 0 0 0 0 0 0 0 0 0 0 0 0 0 0 0 0 0 0 0 0 0 0
0 0 0 0 0 0 0 0 0 0 0 0 0 0 0 0 0 0 0 0 0 0 0 0 0 0 0 0 0 0 0 0 0 0 0 0 0 0 0 0 0 0 0 0 0 0 0 0 0 0 0 0 0 0
0 0 0 0 0 0 0 0 0 0 0 0 0 0 0 0 0 0 0 0 0 0 0 0 0 0 0 0 0 0 0 0 0 0 0 0 0 0 0 0 0 0 0 0 0 0 0 0 0 0 0 0 0 0
0 0 0 -5 -4 0 0 0 0 0 0 0 0 0 0 0 -1 0 0 0 0 0 0 0 0 0 0 0 0 0 0 0 0 0 0 0 0 0 0 0 0 0 0 0 0 0 0 0 0 0 0 0 0 0
Wind_Speed
8 8 10 9 9 10 11 13 13 13 14 16 16 17 18 18 17 16 13 13 14 15 11 13 14 14 14 17 18 14 14 3 3 4 4 2 8 3 12 11 13 15 17 17 17 17 15 20 17 12 8 11 13 16
9 9 10 12 11 11 11 11 12 13 14 15 16 17 17 16 16 16 14 14 12 12 10 8 4 5 9 10 14 15 15 10 7 5 8 7 5 7 13 21 4 18 15 18 17 16 18 18 14 11 12 13 18 20
9 11 13 12 8 9 9 10 11 13 14 16 17 17 17 16 15 14 12 13 14 14 13 14 15 12 11 12 14 14 13 10 13 10 12 10 8 11 21 19 9 10 12 13 13 18 21 20 15 16 15 17 20 22
13 12 10 8 5 6 7 9 10 13 15 16 18 18 16 13 13 12 12 13 14 15 16 14 11 8 11 13 14 13 10 11 15 19 16 20 17 19 21 18 20 20 21 18 17 19 19 15 18 17 18 21 24 24
9 9 7 2 3 4 6 8 11 13 16 17 19 16 12 12 11 11 10 11 12 15 16 11 5 12 12 14 13 12 12 11 10 11 10 10 15 17 17 19 24 23 22 21 22 23 22 19 16 17 21 23 24 24
8 6 3 1 2 5 7 9 12 14 17 18 18 12 10 11 12 14 15 14 13 14 16 16 12 12 13 13 12 11 10 11 11 10 8 9 10 11 9 10 15 23 22 20 22 21 19 19 17 18 20 22 23 23
6 5 3 4 4 6 9 11 14 16 18 19 17 14 10 10 13 14 14 14 15 15 15 14 14 13 13 12 11 10 10 10 9 9 10 9 9 10 9 9 12 20 20 21 21 16 18 17 18 17 19 21 22 22
6 5 6 7 6 8 10 13 16 18 20 19 18 15 12 11 12 11 10 12 13 13 14 14 13 13 14 13 12 11 10 9 9 8 8 7 8 10 9 10 9 14 17 21 17 17 15 15 15 16 18 21 22 23
8 7 9 8 9 10 12 16 18 21 21 20 19 16 16 15 15 14 15 14 13 12 13 12 13 14 14 12 11 12 12 10 10 9 8 10 9 9 8 8 9 11 12 12 17 17 16 14 14 15 17 21 23 24
9 11 11 9 11 13 15 17 20 22 22 21 15 14 15 13 15 15 15 13 12 11 10 9 10 10 12 12 12 12 12 11 11 9 11 9 7 7 10 10 11 12 14 14 13 12 11 11 12 13 16 20 23 26
11 13 14 13 14 14 16 16 20 21 17 14 13 13 14 13 14 14 13 12 12 12 11 10 8 7 10 11 11 11 12 11 12 12 11 11 10 9 10 11 12 13 16 17 15 14 12 11 11 12 17 22 25 28
13 14 13 12 14 17 19 20 19 18 15 16 16 16 16 15 13 12 12 12 11 12 11 12 11 10 11 11 12 12 11 12 11 13 12 12 10 11 11 12 15 16 17 18 19 19 17 16 14 14 15 18 22 27
12 14 14 15 18 21 19 19 18 18 18 15 15 15 14 13 10 11 10 11 12 12 12 12 12 13 13 14 13 13 13 10 11 11 11 10 11 11 12 12 13 16 18 19 20 21 19 16 15 17 18 20 19 22
16 16 16 16 18 17 16 15 14 14 14 13 12 14 11 11 10 9 8 11 12 11 11 11 12 14 13 14 13 13 11 12 12 12 12 11 10 11 12 13 14 16 19 20 20 19 18 20 19 21 19 17 16 17
19 19 17 16 15 14 14 12 12 12 13 13 13 14 11 10 11 12 7 12 13 13 11 13 15 13 13 13 12 13 14 13 12 12 13 11 10 10 12 13 14 16 19 22 22 21 21 22 22 23 20 18 17 18
13 15 19 14 11 10 10 10 12 13 15 15 15 14 13 15 14 14 13 12 13 12 13 14 15 15 13 12 12 11 13 12 14 13 11 11 10 10 11 13 16 18 20 22 23 22 22 25 27 28 27 25 23 22
10 16 12 10 8 6 7 11 12 15 15 16 17 15 16 18 17 16 15 14 12 12 11 13 14 12 14 14 13 11 12 13 12 11 9 7 7 9 11 13 16 19 20 22 21 24 26 26 28 31 32 28 25 23
16 12 11 8 7 6 12 14 15 17 19 19 20 19 17 17 17 16 15 15 14 13 10 11 14 12 13 15 14 13 13 12 11 10 8 8 8 9 11 13 16 18 20 21 22 24 27 28 29 30 31 31 29 27
11 11 7 9 7 9 12 15 16 20 20 21 21 20 20 20 18 17 15 14 12 12 14 14 13 15 11 13 13 14 15 16 15 13 11 12 9 8 10 13 16 17 17 20 22 25 25 25 26 28 29 29 31 30
9 8 6 8 8 13 16 17 16 21 22 20 20 20 19 19 18 15 14 13 13 15 14 14 15 14 15 15 15 14 16 14 14 14 14 12 11 9 11 13 14 14 16 19 23 23 22 24 26 27 28 29 29 29
9 10 7 8 15 17 18 18 18 19 20 21 19 18 20 18 17 17 16 13 13 14 17 16 16 16 16 17 18 19 18 16 14 15 15 13 12 9 12 13 12 12 15 19 20 19 20 23 23 25 27 28 28 27
11 6 10 14 17 19 22 20 20 20 21 22 22 19 21 22 21 21 16 14 17 15 14 16 17 18 18 19 19 18 17 15 13 13 15 14 13 10 9 9 10 12 14 16 16 16 18 20 21 23 25 26 27 25
8 12 14 16 19 20 24 17 20 20 23 22 19 21 21 20 19 16 18 17 18 17 14 15 16 16 16 18 20 19 17 13 13 14 13 13 12 9 7 8 9 11 13 15 13 14 16 17 20 22 22 24 24 24
12 13 16 18 19 22 19 19 18 19 20 21 21 21 20 19 18 18 21 21 20 19 18 19 19 20 20 20 21 22 20 15 13 11 9 10 9 7 7 7 7 10 11 12 12 13 15 17 18 20 21 23 22 23
17 18 19 22 18 21 21 21 19 19 22 19 21 22 20 17 21 22 21 23 20 17 16 16 19 20 22 23 24 23 19 15 12 11 8 6 7 9 9 7 7 9 10 10 11 12 13 15 17 18 18 20 21 22
25 22 22 22 20 21 20 22 20 21 21 21 21 20 19 20 22 22 20 20 17 16 15 17 19 22 24 24 25 21 17 13 11 11 8 5 6 7 7 7 8 9 6 8 9 10 12 13 15 16 16 18 19 21
28 24 21 18 17 18 19 19 17 18 19 21 19 17 17 22 22 21 20 18 18 17 16 16 18 21 24 26 23 18 14 12 11 11 9 8 8 6 6 8 7 6 4 6 8 10 10 11 13 13 14 16 18 19
26 23 24 18 20 19 21 19 18 18 18 17 17 18 21 20 21 21 20 19 17 16 17 18 20 21 23 22 18 14 14 13 13 13 13 13 13 12 11 11 10 6 4 6 8 10 10 10 11 10 11 14 16 17
27 22 20 23 22 22 23 21 20 18 19 19 20 21 23 23 22 22 21 18 18 18 21 23 23 22 22 20 15 13 11 10 12 12 10 11 12 13 11 11 9 7 6 7 9 9 10 11 9 7 9 12 15 17
27 20 24 24 26 27 25 22 24 24 23 23 23 25 25 24 23 20 21 21 23 26 26 25 24 21 22 20 18 15 13 11 11 13 14 14 14 13 9 9 7 7 7 7 8 9 9 10 9 10 10 11 14 16
23 24 27 27 30 29 26 23 25 24 25 25 25 27 28 28 27 26 25 27 27 28 27 26 25 21 22 22 21 20 20 15 12 12 13 15 14 11 8 6 4 4 4 5 6 5 4 6 6 8 9 10 12 15
24 26 27 31 31 26 23 24 26 27 26 27 28 27 29 31 32 28 26 26 24 24 25 25 27 25 26 24 24 24 22 18 15 11 9 9 10 9 6 4 2 2 2 2 3 2 4 4 5 7 9 10 12 14
25 25 26 26 26 25 23 22 24 25 25 27 28 27 25 25 28 24 20 21 22 24 26 27 27 28 28 27 27 26 23 21 15 8 7 5 6 5 3 3 2 2 1 1 1 2 2 2 5 7 8 10 11 14
Wind_Direction
113 102 90 77 80 75 64 59 51 44 36 36 41 39 37 48 55 59 69 81 61 47 48 61 59 48 53 63 60 66 86 124 231 303 158 202 286 186 309 283 294 319 307 317 313 314 304 297 293 320 0 306 332 346
118 102 94 102 95 78 64 52 42 35 29 19 26 27 34 55 54 58 67 69 75 60 57 62 92 105 101 111 82 87 87 127 228 237 271 229 226 270 320 357 178 351 315 339 321 325 328 323 310 300 319 342 346 346
118 115 117 109 86 68 50 35 24 13 6 8 10 21 38 54 59 65 78 77 62 59 62 70 71 72 103 124 132 90 98 163 260 231 269 252 156 280 344 342 279 287 311 314 326 348 358 7 332 356 351 343 331 335
132 127 118 103 73 49 28 13 359 354 356 359 2 13 46 70 72 78 78 82 68 63 60 70 73 93 127 120 126 132 126 125 272 313 355 334 50 17 353 312 329 345 350 330 320 324 319 348 307 338 353 345 338 339
141 134 123 102 39 15 356 344 335 340 342 339 335 31 82 84 88 95 106 99 97 69 56 62 99 98 115 118 123 125 120 110 111 96 101 94 34 16 16 360 346 331 347 350 343 327 329 321 336 345 343 340 342 343
153 148 142 260 322 333 331 328 332 329 318 305 286 216 136 99 82 72 62 76 103 87 60 58 79 99 104 115 122 120 122 110 103 100 102 119 55 65 91 84 47 4 4 360 343 349 347 333 336 344 345 343 345 346
170 168 218 260 292 305 313 317 315 306 297 282 258 230 165 106 75 72 67 79 81 70 62 61 71 95 94 99 104 109 107 115 110 100 108 113 119 93 109 100 64 10 13 10 7 23 8 352 330 337 345 347 350 352
195 201 238 257 279 296 303 305 299 291 283 273 261 239 204 110 88 84 122 122 82 69 70 66 72 77 88 85 85 96 92 96 109 106 104 110 111 111 106 108 76 41 27 14 25 37 51 44 35 14 2 345 345 345
219 225 242 256 273 284 291 290 287 280 276 271 261 241 40 51 54 65 65 68 77 72 64 71 67 64 80 81 78 78 80 74 88 96 103 94 103 108 109 106 82 57 51 54 37 37 45 58 38 14 2 345 338 338
230 241 247 257 270 275 280 284 279 275 268 266 314 4 16 48 55 52 39 52 64 73 77 65 82 74 76 71 70 65 71 73 62 78 80 94 101 95 90 89 74 65 59 59 56 55 53 51 42 30 6 351 341 334
236 244 249 259 267 273 277 285 282 275 280 314 337 354 3 30 24 31 37 51 60 55 67 66 85 79 79 60 55 68 61 64 57 66 65 63 67 92 83 71 63 58 51 46 48 48 46 41 31 15 356 343 337 331
242 246 252 260 267 271 273 273 278 279 295 301 316 328 343 357 14 27 38 43 52 47 55 54 58 73 57 62 48 54 53 60 56 49 54 53 59 71 71 68 46 42 34 28 24 22 23 20 17 10 1 353 345 333
239 246 252 261 266 268 270 271 275 276 283 305 322 337 351 356 11 20 31 36 37 38 43 49 44 42 41 39 36 40 42 48 38 46 45 51 53 61 60 54 41 29 21 17 12 8 8 8 5 360 354 350 347 344
246 246 252 261 266 269 271 274 280 284 296 309 324 323 341 354 3 21 34 35 29 23 33 33 30 27 28 22 24 24 32 33 32 35 35 45 57 51 43 35 27 21 13 10 8 7 5 1 1 357 354 351 347 343
246 247 251 259 265 266 270 275 280 285 297 307 317 320 327 342 346 358 10 352 356 13 23 16 10 13 13 12 16 18 21 25 29 25 28 45 46 35 25 19 15 10 5 3 4 6 7 5 3 360 1 359 357 352
241 247 252 252 253 259 265 274 281 285 295 301 306 316 327 329 329 330 334 339 352 360 1 2 1 3 3 12 12 10 9 7 12 19 31 31 28 21 14 7 2 1 1 1 1 4 7 3 1 359 0 4 3 1
228 260 248 239 235 240 252 274 279 286 294 301 305 306 307 316 321 327 334 334 342 343 342 353 352 358 5 1 358 3 353 355 1 10 20 22 16 6 360 360 358 356 358 358 3 360 360 1 1 357 354 357 359 357
253 250 254 202 199 244 265 275 282 287 289 292 297 305 310 315 320 321 323 326 333 331 328 328 341 337 341 344 345 350 355 359 360 358 357 358 357 355 354 354 354 354 355 359 359 358 356 357 360 3 3 4 9 11
245 248 240 177 217 261 275 278 285 290 290 295 298 302 308 311 314 318 320 321 326 329 332 331 329 329 314 321 323 330 334 338 341 345 349 351 353 354 352 350 350 352 357 358 357 356 358 3 6 8 9 11 14 15
246 250 197 179 234 276 280 286 289 291 297 302 304 304 307 310 317 318 315 316 319 319 315 313 305 312 331 340 342 339 341 340 339 334 332 332 333 336 338 341 345 352 356 355 354 356 2 2 7 11 13 14 16 17
258 262 174 227 266 280 283 288 288 296 301 302 308 310 310 315 313 313 312 316 311 308 312 309 308 307 314 317 319 320 319 319 316 317 324 323 326 328 334 338 345 352 354 353 355 0 3 3 7 12 13 14 19 25
261 242 262 266 276 282 284 286 293 299 299 302 305 308 307 309 310 312 318 311 311 303 300 311 314 316 317 318 319 318 318 318 318 323 326 327 323 323 329 335 343 349 353 354 357 0 2 5 8 11 14 15 19 28
244 262 272 275 277 281 286 291 287 293 295 302 307 304 306 309 313 322 318 321 320 320 319 316 319 322 323 326 329 330 331 327 321 321 326 330 330 331 339 341 348 353 354 353 1 3 1 6 8 8 14 16 20 26
259 261 269 274 270 280 290 287 294 297 298 297 301 302 306 310 316 313 313 317 319 322 323 325 327 329 332 333 333 332 334 332 324 324 328 332 335 337 344 346 357 359 359 357 359 0 2 4 7 7 13 13 21 24
253 261 271 270 276 279 281 285 288 293 295 297 298 303 309 315 309 310 313 316 319 321 326 331 332 332 331 331 333 335 339 341 339 334 336 344 348 345 341 351 357 0 5 358 353 355 357 2 6 7 15 19 22 22
255 261 266 267 269 275 278 282 284 286 294 296 299 307 312 310 308 310 320 322 324 326 326 329 331 332 333 335 333 336 341 350 354 347 347 343 341 338 337 335 339 346 10 360 356 357 356 0 6 10 18 19 22 24
255 261 267 273 278 280 285 288 290 293 293 294 304 305 309 305 307 315 317 319 321 327 333 335 335 332 332 334 338 340 345 348 347 348 355 353 350 351 345 336 333 346 19 2 352 353 356 1 5 14 19 18 19 25
261 259 258 261 269 271 280 283 284 286 293 302 303 298 303 305 310 312 315 320 325 330 331 332 333 333 333 335 340 346 346 348 351 353 353 347 343 343 344 343 347 358 4 353 345 346 348 354 3 18 21 19 19 26
261 263 258 260 266 271 271 274 278 286 290 290 293 296 300 301 308 312 316 320 322 323 321 321 324 329 331 333 334 334 339 341 333 329 327 328 331 331 339 341 345 349 348 346 340 341 343 345 358 25 28 24 24 23
260 253 262 262 264 265 272 274 277 279 284 286 290 295 298 302 308 313 316 316 312 311 313 316 318 320 320 320 319 317 317 317 317 314 314 315 318 325 321 323 325 325 326 330 334 336 340 350 12 15 22 19 16 15
258 254 263 266 268 271 273 275 281 283 283 285 289 290 294 299 304 311 312 312 311 311 311 312 314 316 316 315 314 313 312 309 299 300 309 317 324 326 326 321 327 332 323 323 332 339 351 355 7 12 12 11 11 10
257 257 259 266 270 276 277 274 276 277 280 282 286 293 296 299 299 306 313 315 315 315 317 318 316 313 315 316 318 319 318 315 313 303 294 305 316 322 328 338 351 1 348 333 341 350 344 357 12 6 8 10 9 7
263 263 264 267 273 271 274 275 277 280 281 284 288 292 295 298 299 307 319 323 321 320 319 319 319 317 315 314 313 314 314 315 315 295 297 303 321 336 355 4 32 58 45 357 339 350 4 17 3 2 3 4 4 3